BBG747 LGIR-LLBG

Flight info

Callsign BBG747
Flight time N/A
Altitude 37000
Route DELAV UN136 TIPAS UN134 VAXOS UM978 ULFIT UL995 VANZA DCT PIKOG L609 ZUKKO
Aircraft B738/M-SDE2E3FGHIRWXY/LB1

Departure

Time 2026-05-01 15:30
Airport Heraklion International Nikos Kazantzakis Airport (LGIR)

Arrival

Time N/A
Airport Ben Gurion International Airport (LLBG)
Time Latitude Longitude Altitude Speed Heading
2026-05-01 15:00 35.33763 25.18033 93 ft 0 kts 213°
2026-05-01 15:20 35.33770 25.18039 93 ft 4 kts 213°
2026-05-01 15:20 35.33787 25.18053 90 ft 4 kts 232°
2026-05-01 15:21 35.33792 25.18077 92 ft 4 kts 303°
2026-05-01 15:21 35.33778 25.18101 93 ft 2 kts 306°
2026-05-01 15:21 35.33777 25.18102 90 ft 3 kts 306°
2026-05-01 15:23 35.33789 25.18082 91 ft 8 kts 306°
2026-05-01 15:24 35.33833 25.18009 91 ft 11 kts 306°
2026-05-01 15:24 35.33869 25.17984 92 ft 1 kts 39°
2026-05-01 15:24 35.33872 25.18002 90 ft 5 kts 80°
2026-05-01 15:24 35.33871 25.18086 91 ft 14 kts 95°
2026-05-01 15:25 35.33861 25.18239 92 ft 22 kts 94°
2026-05-01 15:25 35.33846 25.18446 92 ft 25 kts 95°
2026-05-01 15:25 35.33832 25.18651 89 ft 23 kts 95°
2026-05-01 15:25 35.33819 25.18844 91 ft 22 kts 94°
2026-05-01 15:26 35.33817 25.18880 89 ft 0 kts 94°
2026-05-01 15:28 35.33817 25.18881 89 ft 0 kts 94°
2026-05-01 15:29 35.33877 25.18993 90 ft 12 kts 359°
2026-05-01 15:29 35.33915 25.18895 87 ft 24 kts 274°
2026-05-01 15:29 35.34020 25.17414 92 ft 160 kts 277°
2026-05-01 15:30 35.34338 25.14453 1844 ft 170 kts 296°
2026-05-01 15:31 35.38697 25.15686 3918 ft 224 kts 76°
2026-05-01 15:31 35.37524 25.19065 5107 ft 238 kts 141°
2026-05-01 15:32 35.35011 25.21730 6700 ft 240 kts 140°
2026-05-01 15:32 35.33179 25.25140 7857 ft 262 kts 97°
2026-05-01 15:33 35.32837 25.32471 9446 ft 298 kts 92°
2026-05-01 15:34 35.32463 25.40506 10762 ft 346 kts 94°